Weather in Komsomolets

Russia / Volgograd Oblast     49°57′25″N   45°38′27″E
temp.,
°C
wind,
m/s
gust,
m/s
humid.,
%
clouds,
%
prec.,
mm/h
press.,
hPa
HPBL,
m
13 august, sat
sat1300:00+25ene512395 0.0 1020293
03:00+22ene49464 0.0 1020182
06:00+23ene494217 0.0 1020270
09:00+30ene682795 0.0 1020912
12:00+33ene662331 0.0 10191669
15:00+34ne662289 0.0 10172052
18:00+31ne562578 0.0 10171202
21:00+26ene5113499 0.0 1017210
14 august, sun
sun1400:00+25ene41035100 0.0 1016220
03:00+22ne474794 0.0 1016110
06:00+22ne484833 0.0 1017215
09:00+29ene66245 0.0 1016927
12:00+33ene55175 0.0 10152366
15:00+34ene651746 0.0 10142712
18:00+32ne672080 0.0 10141228
21:00+27ene612305 0.0 1015266
15 august, mon
mon1500:00+24ne613425 0.0 1014274
03:00+22ene511495 0.0 1015268
06:00+23ene612433 0.0 1017451
09:00+28ene78274 0.0 1017965
12:00+31ne88233 0.0 10171653
15:00+31ne88190 0.0 10161912
18:00+29ne78200 0.0 10161702
21:00+23nne410300 0.0 1017170
16 august, tue
tue1600:00+21nne512380 0.0 1017240
03:00+20ne611460 0.0 1016240
06:00+21ne511495 0.0 1017311
09:00+29ene79255 0.0 1017953
12:00+33ene89195 0.0 10161811
15:00+35ene781684 0.0 10152332
18:00+33ene691798 0.0 1015612
21:00+28ene7152587 0.0 1016434
17 august, wed
wed1700:00+27ene61326100 0.0 1016477
03:00+25ene51128100 0.0 1016352
06:00+24ene7123182 0.0 1015390
09:00+29ene792516 0.0 1015667
12:00+33ene781899 0.0 10141114
15:00+36ene7816100 0.0 10131444
18:00+35ne791927 0.0 1012662
21:00+30ne8152597 0.0 1012346